FW1737 Weather Reports


time (UTC)temp
C
wind
direction
speed
KPH
gust
KPH
rain 1hr
cm
rain 24hr
cm
rain mn
cm
humidity
%
barometer
mb
20260507220019 11 206 3.2 14.5 0.00 2.26 2.26 99 1001.6
20260507214523 11 124 3.2 14.5 0.00 2.26 2.26 99 1001.5
20260507213019 11 211 6.4 11.3 0.00 2.26 2.26 99 1001.6
20260507211517 11 204 9.7 17.7 0.00 2.26 2.26 99 1001.8
20260507210017 12 244 6.4 11.3 0.03 2.26 2.26 99 1001.9
20260507204516 11 180 1.6 12.9 0.05 2.26 2.26 100 1001.2
20260507203016 11 126 4.8 11.3 0.13 2.26 2.26 100 1000.8
20260507201513 11 102 3.2 8.0 0.20 2.26 2.26 99 1001.1
20260507200013 11 96 4.8 12.9 0.30 2.24 2.24 100 1001.2
20260507194511 11 88 0.0 4.8 0.48 2.21 2.21 100 1002.2
20260507193008 11 83 3.2 8.0 0.61 2.13 2.13 100 1002.0
20260507191506 11 96 1.6 8.0 0.69 2.06 2.06 100 1002.5
20260507190003 11 223 4.8 11.3 0.79 1.91 1.91 100 1003.2
20260507184501 11 213 4.8 12.9 0.89 1.73 1.73 99 1003.4
20260507183100 11 211 6.4 16.1 1.22 1.52 1.52 99 1003.9
20260507181558 11 183 4.8 14.5 1.27 1.37 1.37 99 1004.0
20260507180057 11 203 3.2 8.0 1.09 1.14 1.14 99 1004.4
20260507174606 11 200 11.3 17.7 0.86 0.86 0.86 98 1004.7
20260507173055 11 173 9.7 25.7 0.30 0.30 0.30 98 1004.7
20260507171603 11 183 14.5 27.4 0.10 0.10 0.10 98 1003.9
20260507170053 11 193 12.9 27.4 0.05 0.05 0.05 98 1004.0
20260507164550 11 184 11.3 24.1 0.00 0.00 0.00 98 1004.5
20260507163048 11 175 12.9 20.9 0.00 0.00 0.00 97 1004.8
20260507161545 11 190 16.1 32.2 0.00 0.00 0.00 95 1005.5
20260507160046 12 170 12.9 35.4 0.00 0.00 0.00 95 1005.6
20260507154540 12 163 12.9 33.8 0.00 0.00 0.00 95 1006.2
20260507153038 12 179 20.9 33.8 0.00 0.00 0.00 95 1006.2
20260507151537 12 167 16.1 38.6 0.00 0.00 0.00 94 1006.9
20260507150034 13 217 17.7 33.8 0.00 0.00 0.00 92 1007.2
20260507144546 13 209 20.9 35.4 0.00 0.00 0.00 92 1007.3
20260507143029 13 238 20.9 41.8 0.00 0.00 0.00 94 1007.4
20260507141527 13 212 16.1 37.0 0.00 0.00 0.00 94 1007.8
20260507140024 12 190 19.3 40.2 0.00 0.00 0.00 94 1007.9
20260507134527 12 227 24.1 38.6 0.00 0.00 0.00 93 1008.2
20260507133023 13 221 22.5 40.2 0.00 0.00 0.00 94 1008.3
20260507131521 12 177 12.9 38.6 0.00 0.00 0.00 95 1008.4
20260507130020 12 148 20.9 45.1 0.00 0.00 0.00 95 1008.5
20260507124521 12 176 19.3 40.2 0.00 0.00 0.00 95 1008.8
20260507123017 12 186 17.7 41.8 0.00 0.00 0.00 95 1008.6
20260507121515 12 205 25.7 48.3 0.00 0.00 0.00 95 1008.3
20260507120013 12 177 22.5 40.2 0.00 0.00 0.00 96 1008.4
20260507114509 12 181 25.7 46.7 0.00 0.00 0.00 97 1008.7
20260507113012 12 227 16.1 33.8 0.00 0.00 0.00 97 1009.3
20260507111506 12 167 16.1 40.2 0.00 0.00 0.00 98 1009.3
20260507110003 12 165 14.5 25.7 0.00 0.00 0.00 98 1009.4
20260507104611 11 209 20.9 37.0 0.00 0.00 0.00 98 1009.8
20260507103113 12 208 14.5 35.4 0.00 0.00 0.00 98 1009.9
20260507101556 11 140 9.7 20.9 0.00 0.00 0.00 98 1009.7
20260507100055 11 121 8.0 20.9 0.00 0.00 0.00 98 1010.5
20260507094554 11 159 8.0 19.3 0.00 0.00 0.00 98 1010.7
20260507093058 11 190 11.3 25.7 0.00 0.00 0.00 98 1010.8
20260507091556 11 166 9.7 19.3 0.00 0.00 0.00 99 1010.6
20260507090049 11 144 8.0 27.4 0.00 0.00 0.00 99 1010.8
20260507084547 11 195 9.7 16.1 0.00 0.00 0.00 99 1011.1
20260507083048 11 167 9.7 16.1 0.00 0.00 0.00 99 1011.5
20260507081544 11 222 4.8 17.7 0.00 0.00 0.00 98 1011.5
20260507080045 11 151 3.2 16.1 0.00 0.00 0.00 98 1011.5
20260507074542 11 128 8.0 16.1 0.00 0.00 0.00 98 1011.5
20260507073039 11 158 6.4 12.9 0.00 0.00 0.00 98 1011.9
20260507071637 11 117 3.2 17.7 0.00 0.00 0.00 97 1012.1
20260507070036 11 102 4.8 9.7 0.00 0.00 0.00 97 1012.8
20260507064534 11 207 3.2 17.7 0.00 0.00 0.00 98 1012.9
20260507063035 10 138 0.0 4.8 0.00 0.00 0.00 98 1012.9
20260507061531 10 126 3.2 12.9 0.00 0.00 0.00 99 1013.0
20260507060038 10 169 8.0 14.5 0.00 0.00 0.00 100 1013.0
20260507054524 9 222 0.0 0.0 0.00 0.00 0.00 98 1013.4
20260507053023 9 222 0.0 0.0 0.00 0.00 0.00 97 1013.6
20260507051520 9 222 0.0 0.0 0.00 0.00 0.00 97 1014.2
20260507050018 9 222 0.0 0.0 0.00 0.00 0.00 97 1014.6
20260507044533 9 222 0.0 0.0 0.00 0.00 0.00 97 1014.8
20260507043014 9 222 0.0 0.0 0.00 0.00 0.00 97 1015.2
20260507041512 9 222 0.0 0.0 0.00 0.00 0.00 96 1015.5
20260507040009 9 222 0.0 0.0 0.00 0.00 0.00 96 1015.8
20260507034506 9 222 0.0 4.8 0.00 0.00 0.00 96 1016.0
20260507033004 10 222 1.6 4.8 0.00 0.00 0.00 96 1016.2
20260507031601 10 222 1.6 4.8 0.00 0.00 0.00 95 1016.6
20260507024559 10 222 0.0 0.0 0.00 0.00 0.00 93 1016.8
20260507023054 10 222 0.0 4.8 0.00 0.00 0.00 93 1016.8
20260507021550 11 213 0.0 0.0 0.00 0.00 0.00 91 1017.0
20260507020051 11 212 0.0 6.4 0.00 0.00 0.00 91 1017.1
20260507014547 11 215 0.0 4.8 0.00 0.00 0.00 91 1017.2
20260507013057 12 170 1.6 11.3 0.00 0.00 0.00 90 1017.3
20260507011545 12 148 6.4 11.3 0.00 0.00 0.00 89 1017.4
20260507010045 12 143 4.8 11.3 0.00 0.00 0.00 89 1017.4
20260507004541 12 200 8.0 16.1 0.00 0.00 0.00 88 1017.4
20260507003042 12 180 6.4 17.7 0.00 0.00 0.00 87 1017.5
20260507001542 12 202 6.4 12.9 0.00 0.00 0.00 87 1017.5
20260507000040 12 186 4.8 12.9 0.00 0.00 0.00 86 1017.5
20260506234540 12 189 3.2 16.1 0.00 0.00 0.00 86 1017.6
20260506233037 12 195 4.8 16.1 0.00 0.00 0.00 85 1017.3
20260506231535 12 211 11.3 17.7 0.00 0.00 0.00 85 1017.1
20260506230033 13 205 9.7 22.5 0.00 0.00 0.00 83 1017.1
20260506224532 13 206 12.9 17.7 0.00 0.00 0.00 82 1016.8
20260506223032 13 188 9.7 27.4 0.00 0.00 0.00 80 1016.7
20260506221529 14 171 12.9 24.1 0.00 0.00 0.00 79 1016.7